Date String (YYYY-MM-DD hh:mm:ss) UTC,Instrument flags,Ambient pressure (hPa),Sample flow (lpm),Bypass flow (lpm),Sample temperature (°C),Ambient temperature (°C),ASC tube jacket temperature (°C),LED temperature (°C),Box temperature (°C),Sample RH (%),Span deviation,Mass concentration (μg/m³),Mass concentration (μg/m³),Mass concentration (μg/m³)
DateTimeUTC,F1_M11,P_M11,Q1_M11,Q2_M11,T1_M11,T2_M11,T3_M11,T4_M11,T5_M11,U1_M11,ZSPAN_M11,X0_M11,X2_M11,X1_M11
2022-09-24 15:00:00,,0830.8,4.99,0.00,31.1,29.8,00.0,39.8,32.9,14.7,0000.0,0008.25,0003.04,0002.09
2022-09-24 15:01:00,,0830.8,5.00,0.00,31.1,29.8,00.0,39.8,32.9,14.7,0000.0,0008.26,0003.04,0002.09
2022-09-24 15:02:00,,0830.8,5.00,0.00,31.1,29.9,00.0,39.8,33.0,13.3,0000.0,0007.25,0003.01,0002.08
2022-09-24 15:03:00,,0830.9,5.00,0.00,31.2,29.4,00.0,39.8,33.0,13.4,0000.0,0006.99,0002.98,0002.07
2022-09-24 15:04:00,,0830.9,5.01,0.00,31.1,28.1,00.0,39.8,32.9,14.4,0000.0,0006.72,0002.96,0002.07
2022-09-24 15:05:00,,0830.9,5.00,0.00,31.1,27.7,00.0,39.7,32.8,14.3,0000.0,0006.62,0002.93,0002.06
2022-09-24 15:06:00,,0830.9,4.99,0.00,31.0,27.8,00.0,39.7,32.7,14.4,0000.0,0006.56,0002.85,0002.04
2022-09-24 15:07:00,,0830.9,4.99,0.00,30.9,28.1,00.0,39.7,32.6,14.4,0000.0,0006.41,0002.81,0002.04
2022-09-24 15:08:00,,0830.9,5.00,0.00,30.9,28.4,00.0,39.6,32.5,14.4,0000.0,0005.97,0002.82,0002.03
2022-09-24 15:09:00,,0830.9,5.00,0.00,30.9,28.6,00.0,39.6,32.5,14.3,0000.0,0005.32,0002.79,0002.02
2022-09-24 15:10:00,,0830.9,4.99,0.00,30.8,28.8,00.0,39.6,32.5,14.1,0000.0,0004.86,0002.72,0002.01
2022-09-24 15:11:00,,0830.9,5.01,0.00,30.8,29.0,00.0,39.6,32.5,14.0,0000.0,0004.93,0002.76,0002.02
2022-09-24 15:12:00,,0830.9,5.00,0.00,30.8,29.1,00.0,39.6,32.6,13.9,0000.0,0004.91,0002.77,0002.04
2022-09-24 15:13:00,,0830.9,5.00,0.00,30.8,29.2,00.0,39.6,32.6,13.9,0000.0,0004.88,0002.79,0002.06
2022-09-24 15:14:00,,0830.9,4.99,0.00,30.8,29.3,00.0,39.6,32.6,13.8,0000.0,0004.95,0002.84,0002.08
2022-09-24 15:15:00,,0830.9,5.01,0.00,30.8,29.3,00.0,39.6,32.6,14.2,0000.0,0004.77,0002.84,0002.10
2022-09-24 15:16:00,,0831.0,5.00,0.00,30.8,29.4,00.0,39.6,32.6,13.9,0000.0,0004.86,0002.86,0002.11
2022-09-24 15:17:00,,0831.1,5.01,0.00,30.8,29.4,00.0,39.6,32.6,13.5,0000.0,0004.80,0002.87,0002.11
2022-09-24 15:18:00,,0831.0,5.00,0.00,30.8,29.5,00.0,39.6,32.6,13.4,0000.0,0005.94,0002.86,0002.12
2022-09-24 15:19:00,,0831.0,4.99,0.00,30.9,29.5,00.0,39.6,32.7,13.8,0000.0,0006.18,0002.87,0002.14
2022-09-24 15:20:00,,0831.0,5.00,0.00,30.9,29.5,00.0,39.6,32.7,14.1,0000.0,0007.02,0002.86,0002.14
2022-09-24 15:21:00,,0831.0,4.99,0.00,30.9,29.6,00.0,39.6,32.7,13.8,0000.0,0007.06,0002.86,0002.15
2022-09-24 15:22:00,,0831.0,4.99,0.00,30.9,29.6,00.0,39.6,32.7,14.2,0000.0,0007.05,0002.83,0002.14
2022-09-24 15:23:00,,0831.0,5.00,0.00,30.9,29.7,00.0,39.6,32.8,13.6,0000.0,0006.94,0002.79,0002.13
2022-09-24 15:24:00,,0831.0,4.99,0.00,30.9,29.7,00.0,39.6,32.8,13.5,0000.0,0007.23,0002.82,0002.13
2022-09-24 15:25:00,,0831.0,5.01,0.00,30.9,29.7,00.0,39.6,32.8,14.0,0000.0,0007.48,0002.82,0002.11
2022-09-24 15:26:00,,0831.0,4.99,0.00,31.0,29.7,00.0,39.6,32.8,14.2,0000.0,0007.57,0002.83,0002.09
2022-09-24 15:27:00,,0831.0,5.00,0.00,31.0,29.1,00.0,39.6,32.8,14.0,0000.0,0007.56,0002.82,0002.10
2022-09-24 15:28:00,,0831.0,4.99,0.00,31.0,27.7,00.0,39.6,32.7,14.1,0000.0,0007.55,0002.85,0002.10
2022-09-24 15:29:00,,0831.0,5.00,0.00,30.9,27.3,00.0,39.5,32.6,13.9,0000.0,0006.55,0002.87,0002.10
2022-09-24 15:30:00,,0831.0,5.00,0.00,30.8,27.5,00.0,39.5,32.5,13.9,0000.0,0006.54,0002.87,0002.10
2022-09-24 15:31:00,,0831.0,4.99,0.00,30.7,27.8,00.0,39.5,32.4,13.9,0000.0,0005.74,0002.88,0002.09
2022-09-24 15:32:00,,0831.1,4.99,0.00,30.7,28.2,00.0,39.5,32.4,14.3,0000.0,0005.67,0002.86,0002.09
2022-09-24 15:33:00,,0831.1,5.00,0.00,30.7,28.4,00.0,39.4,32.4,14.4,0000.0,0006.63,0002.90,0002.08
2022-09-24 15:34:00,,0831.1,4.99,0.00,30.7,28.6,00.0,39.4,32.4,14.1,0000.0,0006.74,0002.93,0002.09
2022-09-24 15:35:00,,0831.1,5.00,0.00,30.7,28.8,00.0,39.4,32.4,13.7,0000.0,0006.42,0002.90,0002.08
2022-09-24 15:36:00,,0831.1,5.00,0.00,30.7,28.9,00.0,39.4,32.4,14.6,0000.0,0006.00,0002.84,0002.08
2022-09-24 15:37:00,,0831.2,5.00,0.00,30.7,29.0,00.0,39.4,32.4,15.1,0000.0,0006.37,0002.85,0002.09
2022-09-24 15:38:00,,0831.2,5.01,0.00,30.7,29.1,00.0,39.4,32.5,15.5,0000.0,0007.25,0002.87,0002.08
2022-09-24 15:39:00,,0831.1,5.00,0.00,30.7,29.2,00.0,39.4,32.5,15.1,0000.0,0007.35,0002.90,0002.08
2022-09-24 15:40:00,,0831.1,5.00,0.00,30.7,29.3,00.0,39.4,32.5,15.1,0000.0,0007.95,0002.90,0002.08
2022-09-24 15:41:00,,0831.1,5.05,0.00,30.7,29.3,00.0,39.4,32.5,15.0,0000.0,0007.88,0002.88,0002.08
2022-09-24 15:42:00,,0831.1,4.99,0.00,30.7,29.4,00.0,39.4,32.5,13.9,0000.0,0007.76,0002.86,0002.08
2022-09-24 15:43:00,,0831.1,5.00,0.00,30.7,29.4,00.0,39.4,32.6,14.2,0000.0,0007.73,0002.88,0002.07
2022-09-24 15:44:00,,0831.2,5.01,0.00,30.7,29.5,00.0,39.4,32.6,13.3,0000.0,0007.51,0002.90,0002.06
2022-09-24 15:45:00,,0831.1,5.00,0.00,30.8,29.5,00.0,39.5,32.6,14.1,0000.0,0006.94,0002.85,0002.05
2022-09-24 15:46:00,,0831.2,4.99,0.00,30.8,29.6,00.0,39.5,32.6,14.7,0000.0,0007.28,0002.85,0002.04
2022-09-24 15:47:00,,0831.2,5.01,0.00,30.8,29.2,00.0,39.5,32.7,14.6,0000.0,0008.17,0002.85,0002.04
2022-09-24 15:48:00,,0831.2,5.00,0.00,30.8,27.8,00.0,39.4,32.5,14.6,0000.0,0008.24,0002.87,0002.04
2022-09-24 15:49:00,,0831.1,5.00,0.00,30.7,27.2,00.0,39.4,32.4,14.8,0000.0,0007.92,0002.88,0002.03
2022-09-24 15:50:00,,0831.2,5.00,0.00,30.7,27.4,00.0,39.3,32.3,14.5,0000.0,0007.68,0002.87,0002.03
2022-09-24 15:51:00,,0831.2,5.00,0.00,30.6,27.7,00.0,39.3,32.3,15.1,0000.0,0007.42,0002.84,0002.02
2022-09-24 15:52:00,,0831.2,5.01,0.00,30.6,28.0,00.0,39.3,32.3,15.2,0000.0,0006.92,0002.89,0002.02
2022-09-24 15:53:00,,0831.2,5.00,0.00,30.5,28.2,00.0,39.3,32.3,15.4,0000.0,0007.22,0002.87,0002.01
2022-09-24 15:54:00,,0831.1,5.00,0.00,30.5,28.5,00.0,39.3,32.3,14.9,0000.0,0007.62,0002.85,0002.00
2022-09-24 15:55:00,,0831.1,5.00,0.00,30.5,28.7,00.0,39.3,32.3,14.6,0000.0,0007.61,0002.84,0002.01
2022-09-24 15:56:00,,0831.1,4.99,0.00,30.5,28.8,00.0,39.3,32.3,13.3,0000.0,0007.61,0002.84,0002.01
2022-09-24 15:57:00,,0831.2,5.01,0.00,30.5,28.9,00.0,39.3,32.3,14.8,0000.0,0007.28,0002.81,0002.00
2022-09-24 15:58:00,,0831.2,4.99,0.00,30.5,29.0,00.0,39.3,32.3,14.7,0000.0,0006.04,0002.82,0001.99
2022-09-24 15:59:00,,0831.2,5.00,0.00,30.5,29.1,00.0,39.3,32.4,14.7,0000.0,0005.94,0002.83,0002.00
